[Iaude] MPEC R48: 2023 QE11 [a=2.35,e=0.55,i=6.5,H=20.6]

mpec at marsden.cfa.harvard.edu mpec at marsden.cfa.harvard.edu
Thu Sep 7 23:39:30 EDT 2023


M.P.E.C. 2023-R48                             Issued 2023 September 8, 03:38 UT

     The Minor Planet Electronic Circulars contain information on unusual
         minor planets, routine data on comets and natural satellites,
         and occasional editorial announcements.  They are published
    on behalf of Division F of the International Astronomical Union by the
          Minor Planet Center, Smithsonian Astrophysical Observatory,
                          Cambridge, MA 02138, U.S.A.
			  
             Prepared using the Tamkin Foundation Computer Network

                              MPC at CFA.HARVARD.EDU
            URL https://www.minorplanetcenter.net/    ISSN 1523-6714

                                   2023 QE11                                    


Observations:
     K23Q11E* C2023 08 22.48865900 20 09.384-11 25 23.51         21.84wXER048F51
     K23Q11E  C2023 08 22.49961700 20 09.934-11 25 31.30         21.52wXER048F51
     K23Q11E  C2023 08 22.51057100 20 10.461-11 25 39.02         21.39wXER048F51
     K23Q11E  C2023 08 22.52153900 20 10.998-11 25 46.83         21.68wXER048F51
     K23Q11E  C2023 08 22.58741200 20 14.218-11 26 33.09         21.27GVER048F51
     K23Q11E  C2023 08 22.58822400 20 14.253-11 26 33.57         21.36GVER048F51
     K23Q11E 1C2023 09 07.42306000 33 13.734-15 31 39.40         20.44GVER048G96
     K23Q11E 1C2023 09 07.42821500 33 13.914-15 31 45.37         20.33GVER048G96
     K23Q11E 1C2023 09 07.43336400 33 14.116-15 31 51.71         20.13GVER048G96
     K23Q11E 1C2023 09 07.44289200 33 14.468-15 32 02.33         20.46GVER048G96
     K23Q11E KC2023 09 08.06610400 33 41.86 -15 44 14.1          19.8 GVER048L01
     K23Q11E KC2023 09 08.06862900 33 41.95 -15 44 16.1          19.5 GVER048L01
     K23Q11E KC2023 09 08.07094200 33 42.07 -15 44 19.3          20.3 GVER048L01
     K23Q11E KC2023 09 08.07437800 33 42.18 -15 44 22.9          19.9 GVER048L01
     K23Q11E KC2023 09 08.07760500 33 42.33 -15 44 26.7          20.3 GVER048L01

Observer details:
F51 Pan-STARRS 1, Haleakala.  Observers J. Bulger, T. Lowe, P. Minguez, A.
    Schultz, I. Smith, K. Chambers.  Measurers K. Chambers, T. de Boer, J.
    Bulger, J. Fairlamb, H. Gao, M. Huber, C.-C. Lin, T. Lowe, E. Magnier, P.
    Minguez, Y. Ramanjooloo, A. Schultz, I. Smith, R. Wainscoat, R. Weryk, S.
    Chastel.  1.8-m Ritchey-Chretien + CCD.
G96 Mt. Lemmon Survey.  Observer A. R. Gibbs.  Measurers E. J. Christensen, D.
    Fay, J. B. Fazekas, D. C. Fuls, A. R. Gibbs, A. D. Grauer, H. Groeller, J.
    K. Hogan, R. A. Kowalski, S. M. Larson, G. J. Leonard, D. Rankin, R. L.
    Seaman, A. Serrano, F. C. Shelly, K. W. Wierzchos.  1.5-m reflector + 10K
    CCD.
L01 Visnjan Observatory, Tican.  Observer K. Korlevic.  1.0-m f/2.9 reflector
    + CCD.

Orbital elements:
2023 QE11                                                Earth MOID = 0.1119 AU
Epoch 2023 Sept. 13.0 TT = JDT 2460200.5                Veres                   
M 339.33837              (2000.0)            P               Q                  
n   0.27319323     Peri.  310.05820     +0.45099129     -0.88648092             
a   2.3522822      Node   112.84641     +0.84932270     +0.39053223             
e   0.5475326      Incl.    6.46249     +0.27433156     +0.24826630             
P   3.61           H   20.61          G   0.15           U   9                  
Residuals in seconds of arc
230822 F51  0.1-  0.0     230822 F51  0.0   0.1+    230908 L01  0.2-  0.6-
230822 F51  0.1+  0.0     230907 G96  0.0   0.3+    230908 L01  0.3-  0.3+
230822 F51  0.0   0.0     230907 G96  0.1-  0.2+    230908 L01  0.2+  0.2-
230822 F51  0.0   0.1-    230907 G96  0.1+  0.2-    230908 L01  0.1-  0.3+
230822 F51  0.1+  0.0     230907 G96  0.0   0.1+    230908 L01  0.3+  0.2+

Ephemeris:
2023 QE11                a,e,i = 2.35, 0.55, 6                   q = 1.0643
Date    TT    R. A. (2000) Decl.     Delta      r    Elong.  Phase     V
2023 08 09    00 06 47.9 -09 25 10   0.7421  1.6383   137.2    24.8    22.2
...
2023 08 24    00 21 31.0 -11 43 29   0.5753  1.5286   147.7    20.7    21.4
...
2023 09 01    00 28 18.6 -13 37 32   0.4993  1.4709   152.6    18.4    20.9
...
2023 09 07    00 32 55.5 -15 23 17   0.4483  1.4282   155.6    17.0    20.5
2023 09 08    00 33 39.2 -15 42 38   0.4403  1.4212   156.0    16.8    20.5
2023 09 09    00 34 22.3 -16 02 27   0.4325  1.4142   156.3    16.6    20.4
...
2023 09 15    00 38 28.8 -18 11 13   0.3884  1.3727   157.4    16.3    20.1
...
2023 09 23    00 43 38.5 -21 25 43   0.3374  1.3191   156.0    18.0    19.8
...
2023 10 08    00 54 35.5 -28 08 04   0.2627  1.2267   146.3    26.9    19.4

M. P. C. Staff               (C) Copyright 2023 MPC           M.P.E.C. 2023-R48





More information about the Iaude mailing list